Regional Weather Roundup
Issued by NWS

Home | Current Version | Previous Version | Graphics & Text | Print | Product List | Glossary On
Versions: 1 2 3 4 5 6 7 8 9 10 11 12 13 14 15 16 17 18 19 20 21 22 23 24 25 26 27 28 29 30 31 32 33 34 35 36 37 38 39 40 41 42 43 44 45 46 47 48 49 50
000
ASUS43 KDTX 211601
RWRMI
MICHIGAN HOURLY REGIONAL WEATHER ROUNDUP
NATIONAL WEATHER SERVICE DETROIT/PONTIAC MI
1200 PM EDT THU AUG 21 2014

NOTE: "FAIR" INDICATES FEW OR NO CLOUDS BELOW 12,000 FEET WITH NO
SIGNIFICANT WEATHER AND/OR OBSTRUCTION TO VISIBILITY.

MIZ047>049-052>055-059>063-066>070-074>076-081>083-211700-
SOUTHEAST LOWER MICHIGAN

CITY           SKY/WX    TMP DP  RH WIND       PRES   REMARKS
ADRIAN         CLOUDY    77  70  79 S9        30.02S
ALMA           PTSUNNY   70  64  80 CALM      30.01F
ANN ARBOR      PTSUNNY   77  65  66 CALM      30.01S
BAD AXE        CLOUDY    71  64  77 W3        30.00F
CARO           PTSUNNY   72  64  75 CALM      30.00F
DETROIT CITY   PTSUNNY   75  64  68 SE6       30.01F
DETROIT        CLOUDY    77  66  68 SE3       30.01R
FLINT          PTSUNNY   76  63  64 VRB6      30.01F
GROSSE ILE     PTSUNNY   77  70  78 S7        30.00S
HILLSDALE      PTSUNNY   78  70  74 W6        30.03S
HOWELL         PTSUNNY   74  64  70 CALM      30.01F

CITY           SKY/WX    TMP DP  RH WIND       PRES   REMARKS
JACKSON        CLOUDY    76  69  79 CALM      30.02R
LAMBERTVILLE   CLOUDY    79  70  73 CALM      30.01F
LANSING        MOSUNNY   75  65  70 E6        30.01F
LAPEER         PTSUNNY   70  63  78 CALM      30.02S
MASON          CLOUDY    74  66  77 CALM      30.01S
MONROE         CLOUDY    75  70  83 SW5       30.00S HAZE
MT. CLEMENS    PTSUNNY   72  63  74 E6        30.00F
PONTIAC        CLOUDY    74  63  68 NE3       30.01S
PORT HOPE        N/A     68  62  81 CALM      29.99F
PORT HURON     PTSUNNY   73  64  73 E5        30.01S
TRI CITIES     PTSUNNY   72  62  71 N3        30.02F
TROY           CLOUDY    76  64  65 SE3       30.03F
SAGINAW HB     PTSUNNY   72  64  78 CALM      30.01S
$$
MIZ043>046-050>051-056>058-064>065-071>073-077>080-211700-
SOUTHWEST LOWER MICHIGAN

CITY           SKY/WX    TMP DP  RH WIND       PRES   REMARKS
BATTLE CREEK   CLOUDY    78  69  73 SW6       30.01S
BENTON HARBOR  CLOUDY    75  69  81 SW5       29.95F
BIG RAPIDS     PTSUNNY   72  65  78 S5        30.00S
COLDWATER      CLOUDY    78  69  73 SW9       30.02S
FREMONT        CLOUDY    73  63  71 E5        29.99S
HOLLAND        CLOUDY    77  70  79 SW8       29.99S
GRAND RAPIDS   CLOUDY    75  70  84 SE6       30.00S
IONIA          CLOUDY    71  64  79 E5        30.00R
KALAMAZOO      CLOUDY    78  67  68 W7        30.00S
LUDINGTON      PTSUNNY   74  65  73 E6        29.97F
MARSHALL       CLOUDY    75  69  82 CALM      30.01R
MOUNT PLEASANT PTSUNNY   70  63  78 E3        30.01S
MUSKEGON       CLOUDY    78  65  63 E8        29.97F
SOUTH HAVEN    CLOUDY    75  71  87 S3        29.97F
$$
MIZ016>042-211700-
NORTHERN LOWER MICHIGAN

CITY           SKY/WX    TMP DP  RH WIND       PRES   REMARKS
ALPENA         CLOUDY    67  62  84 N7        29.99F
BEAVER ISLAND  CLOUDY    67  62  84 SE5       30.00F
BELLAIRE       CLOUDY    71  60  68 N5        29.99F
CADILLAC       MOSUNNY   72  62  70 E5        29.99F
CHARLEVOIX     CLOUDY    66  64  90 E3        30.04R
FRANKFORT      MOSUNNY   74  62  65 E6        29.97F
GAYLORD        CLOUDY    67  59  75 NW5       30.02S
GRAYLING       CLOUDY    69  62  78 N3        30.03R
HARBOR SPRINGS MOSUNNY   69  62  79 SW3       29.99S
HOUGHTON LAKE  PTSUNNY   72  62  71 W6        30.01F
MANISTEE       MOSUNNY   72  63  73 SE8       29.98S
OSCODA         CLOUDY    69  62  78 CALM      29.99S
PELLSTON       PTSUNNY   72  62  71 VRB5      30.00F
ROGERS CITY    CLOUDY    65  64  95 W5        30.00F
TRAVERSE CITY  PTSUNNY   72  61  68 VRB3      29.98F
$$
MIZ007>008-015-211700-
EASTERN UPPER MICHIGAN

CITY           SKY/WX    TMP DP  RH WIND       PRES   REMARKS
KINROSS        CLOUDY    64  64 100 N3        29.99F
MACKINAC ISLAN CLOUDY    64  64  97 CALM      30.00S
NEWBERRY       CLOUDY    69  61  75 N3        29.99S
S. S. MARIE    CLOUDY    68  62  81 CALM      29.99F
$$
MIZ004>006-011>014-085-211700-
CENTRAL UPPER MICHIGAN

CITY           SKY/WX    TMP DP  RH WIND       PRES   REMARKS
MANISTIQUE     CLOUDY    64  61  92 S3        30.00R
ESCANABA       CLOUDY    63  61  94 E7        29.99R
MENOMINEE      CLOUDY    70  61  73 E6        29.97R
$$
MIZ001>003-009>011-084-211700-
WESTERN UPPER MICHIGAN

CITY           SKY/WX    TMP DP  RH WIND       PRES   REMARKS
IRON MOUNTAIN  CLOUDY    70  62  76 VRB7      29.97S
HOUGHTON       CLOUDY    62  59  90 SE6       29.98R
COPPER HARBOR    N/A     59  57  93 VRB3      29.98R
IRONWOOD       PTSUNNY   70  64  83 E10       29.89F
$$

ABBREVIATIONS USED IN REMARKS
   TC - TEMPERATURE IN CELSIUS
  WCI - WIND CHILL INDEX
   HX - HEAT INDEX
  VSB - VISIBILITY




USA.gov is the U.S. government's official web portal to all federal, state and local government web resources and services.